When you browse on this site, cookies collect data to enhance your experience and personalize the content and advertising you see.
Visit our Privacy Policy to learn more. By continuing to use the site, you agree to this use of cookies and data.
  • In Hungary
  • List of Countries
  • For 7 days
  • Water Temperature
  • Satellite Maps
  • Weather Map
  • News
  • Weather Widgets
  • user-avatar
    Login

    Hourly Weather Piasutno

    Today, 9 December, Sunday

    Time Temperature Precipitation Wind Pressure Humidity
    00:00 +1°C° 0 mm 6 mps 735 mmHg 85%
    01:00 +1°C° 0 mm 5 mps 735 mmHg 86%
    02:00 +1°C° 0 mm 5 mps 734 mmHg 87%
    03:00 +1°C° 0 mm 5 mps 734 mmHg 87%
    04:00 +1°C° 0 mm 5 mps 734 mmHg 88%
    05:00 +1°C° 0 mm 5 mps 733 mmHg 89%
    06:00 +1°C° 0 mm 5 mps 733 mmHg 90%
    07:00 0°C° 0 mm 5 mps 732 mmHg 92%
    08:00 0°C° 0 mm 5 mps 732 mmHg 90%
    09:00 +1°C° 0 mm 6 mps 731 mmHg 89%
    10:00 0°C° 0 mm 7 mps 731 mmHg 87%
    11:00 0°C° 0.2 mm 7 mps 730 mmHg 86%
    12:00 +2°C° 0.2 mm 6 mps 730 mmHg 85%
    13:00 +2°C° 0 mm 5 mps 729 mmHg 85%
    14:00 +2°C° 0.1 mm 5 mps 729 mmHg 87%
    15:00 +2°C° 0.1 mm 5 mps 729 mmHg 89%
    16:00 +3°C° 0.1 mm 4 mps 729 mmHg 91%
    17:00 +3°C° 0.2 mm 4 mps 730 mmHg 92%
    18:00 +4°C° 0.2 mm 4 mps 730 mmHg 92%
    19:00 +4°C° 0.2 mm 4 mps 730 mmHg 92%
    20:00 +4°C° 0.2 mm 4 mps 730 mmHg 92%
    21:00 +3°C° 0.2 mm 4 mps 731 mmHg 92%
    22:00 +3°C° 0.2 mm 4 mps 731 mmHg 91%
    23:00 +3°C° 0.1 mm 4 mps 731 mmHg 92%

    Tomorrow, 10 December, Monday

    Time Temperature Precipitation Wind Pressure Humidity
    00:00 +3°C° 0.1 mm 4 mps 731 mmHg 93%
    01:00 +3°C° 0.1 mm 3 mps 731 mmHg 94%
    02:00 +3°C° 0.1 mm 3 mps 731 mmHg 95%
    03:00 +3°C° 0.1 mm 3 mps 732 mmHg 95%
    04:00 +2°C° 0.1 mm 3 mps 732 mmHg 96%
    05:00 +3°C° 0.2 mm 3 mps 732 mmHg 95%
    06:00 +3°C° 0.2 mm 3 mps 732 mmHg 95%
    07:00 +3°C° 0.2 mm 3 mps 732 mmHg 94%
    08:00 +3°C° 0.3 mm 4 mps 733 mmHg 88%
    09:00 +2°C° 0.3 mm 5 mps 734 mmHg 83%
    10:00 +2°C° 0.3 mm 6 mps 734 mmHg 77%
    11:00 +2°C° 0.1 mm 5 mps 735 mmHg 76%
    12:00 +2°C° 0.1 mm 5 mps 735 mmHg 76%
    13:00 +2°C° 0.1 mm 5 mps 735 mmHg 76%
    14:00 +3°C° 0 mm 4 mps 736 mmHg 77%
    15:00 +1°C° 0 mm 4 mps 736 mmHg 79%
    16:00 +2°C° 0 mm 3 mps 737 mmHg 80%
    17:00 +1°C° 0 mm 4 mps 737 mmHg 80%
    18:00 0°C° 0 mm 4 mps 738 mmHg 80%
    19:00 0°C° 0 mm 4 mps 738 mmHg 80%
    20:00 -1°C° 0 mm 4 mps 738 mmHg 81%
    21:00 0°C° 0 mm 3 mps 738 mmHg 83%
    22:00 -1°C° 0 mm 3 mps 738 mmHg 85%
    23:00 -1°C° 0 mm 3 mps 739 mmHg 87%

    Day after tomorrow, 11 December, Tuesday

    Time Temperature Precipitation Wind Pressure Humidity
    00:00 -1°C° 0 mm 3 mps 739 mmHg 89%
    01:00 -1°C° 0 mm 2 mps 739 mmHg 91%
    02:00 -2°C° 0 mm 2 mps 740 mmHg 92%
    03:00 -2°C° 0 mm 2 mps 740 mmHg 93%
    04:00 -2°C° 0 mm 2 mps 740 mmHg 93%
    05:00 -2°C° 0 mm 2 mps 740 mmHg 94%
    06:00 -2°C° 0 mm 2 mps 740 mmHg 94%
    07:00 -2°C° 0 mm 2 mps 741 mmHg 95%
    08:00 -2°C° 0 mm 2 mps 741 mmHg 92%
    09:00 -1°C° 0 mm 2 mps 742 mmHg 90%
    10:00 -1°C° 0 mm 2 mps 742 mmHg 88%
    11:00 +1°C° 0 mm 2 mps 742 mmHg 86%
    12:00 +1°C° 0 mm 2 mps 743 mmHg 84%
    13:00 +2°C° 0 mm 2 mps 743 mmHg 83%
    14:00 +1°C° 0 mm 2 mps 743 mmHg 85%
    15:00 +2°C° 0 mm 1 mps 744 mmHg 88%
    16:00 +1°C° 0 mm 1 mps 744 mmHg 91%
    17:00 +1°C° 0 mm 1 mps 745 mmHg 92%
    18:00 +1°C° 0 mm 1 mps 745 mmHg 92%
    19:00 0°C° 0 mm 1 mps 746 mmHg 93%
    20:00 0°C° 0 mm 1 mps 746 mmHg 93%
    21:00 0°C° 0 mm 1 mps 746 mmHg 93%
    22:00 0°C° 0 mm 1 mps 747 mmHg 93%
    23:00 0°C° 0 mm 1 mps 747 mmHg 93%

    12 December, Wednesday

    Time Temperature Precipitation Wind Pressure Humidity
    00:00 0°C° 0 mm 1 mps 747 mmHg 92%
    01:00 0°C° 0 mm 1 mps 748 mmHg 92%
    02:00 0°C° 0 mm 1 mps 748 mmHg 92%
    03:00 0°C° 0 mm 1 mps 748 mmHg 92%
    04:00 0°C° 0 mm 1 mps 749 mmHg 92%
    05:00 -1°C° 0 mm 1 mps 749 mmHg 93%
    06:00 -1°C° 0 mm 1 mps 749 mmHg 93%
    07:00 -1°C° 0 mm 1 mps 749 mmHg 93%
    08:00 0°C° 0 mm 1 mps 750 mmHg 91%
    09:00 0°C° 0 mm 1 mps 750 mmHg 89%
    10:00 +1°C° 0 mm 1 mps 750 mmHg 87%
    11:00 +1°C° 0 mm 1 mps 751 mmHg 86%
    12:00 +1°C° 0 mm 1 mps 751 mmHg 84%
    13:00 -1°C° 0 mm 2 mps 751 mmHg 83%
    14:00 -1°C° 0 mm 2 mps 751 mmHg 86%
    15:00 -2°C° 0 mm 2 mps 751 mmHg 90%
    16:00 -2°C° 0 mm 2 mps 751 mmHg 93%
    17:00 -2°C° 0 mm 2 mps 752 mmHg 94%
    18:00 -2°C° 0 mm 2 mps 752 mmHg 94%
    19:00 -2°C° 0 mm 2 mps 752 mmHg 95%
    20:00 -2°C° 0 mm 3 mps 752 mmHg 94%
    21:00 -2°C° 0 mm 3 mps 752 mmHg 94%
    22:00 -2°C° 0 mm 3 mps 752 mmHg 93%
    23:00 -2°C° 0 mm 3 mps 752 mmHg 92%

    13 December, Thursday

    Time Temperature Precipitation Wind Pressure Humidity
    00:00 -2°C° 0 mm 3 mps 752 mmHg 92%
    01:00 -2°C° 0 mm 3 mps 752 mmHg 91%
    02:00 -2°C° 0 mm 3 mps 752 mmHg 91%
    03:00 -2°C° 0 mm 3 mps 752 mmHg 90%
    04:00 -1°C° 0 mm 3 mps 752 mmHg 90%
    05:00 -1°C° 0.1 mm 3 mps 752 mmHg 89%
    06:00 -2°C° 0.1 mm 3 mps 752 mmHg 89%
    07:00 -3°C° 0.1 mm 4 mps 752 mmHg 88%
    08:00 -2°C° 0 mm 4 mps 752 mmHg 86%
    09:00 -2°C° 0 mm 4 mps 752 mmHg 84%
    10:00 -2°C° 0 mm 4 mps 752 mmHg 82%
    11:00 -2°C° 0 mm 4 mps 752 mmHg 81%
    12:00 -2°C° 0 mm 4 mps 751 mmHg 79%
    13:00 -2°C° 0 mm 4 mps 751 mmHg 78%
    14:00 -1°C° 0 mm 3 mps 751 mmHg 79%
    15:00 -1°C° 0 mm 3 mps 751 mmHg 80%
    16:00 -2°C° 0 mm 3 mps 751 mmHg 81%
    17:00 -2°C° 0 mm 3 mps 751 mmHg 83%
    18:00 -2°C° 0 mm 3 mps 751 mmHg 84%
    19:00 -2°C° 0 mm 3 mps 751 mmHg 85%
    20:00 -2°C° 0 mm 3 mps 751 mmHg 86%
    21:00 -2°C° 0 mm 2 mps 751 mmHg 87%
    22:00 -2°C° 0 mm 2 mps 751 mmHg 88%
    23:00 -2°C° 0 mm 2 mps 751 mmHg 89%

    14 December, Friday

    Time Temperature Precipitation Wind Pressure Humidity
    00:00 -2°C° 0 mm 2 mps 751 mmHg 89%
    01:00 -2°C° 0 mm 2 mps 751 mmHg 89%
    02:00 -2°C° 0 mm 2 mps 751 mmHg 89%
    03:00 -2°C° 0 mm 2 mps 751 mmHg 89%
    04:00 -2°C° 0 mm 2 mps 751 mmHg 90%
    05:00 -2°C° 0 mm 2 mps 751 mmHg 90%
    06:00 -2°C° 0 mm 2 mps 751 mmHg 90%
    07:00 -2°C° 0 mm 2 mps 751 mmHg 90%
    08:00 -2°C° 0 mm 2 mps 752 mmHg 87%
    09:00 -2°C° 0 mm 2 mps 752 mmHg 84%
    10:00 -1°C° 0 mm 2 mps 752 mmHg 81%
    11:00 -1°C° 0 mm 2 mps 752 mmHg 80%
    12:00 -1°C° 0 mm 2 mps 752 mmHg 79%
    13:00 -1°C° 0 mm 2 mps 752 mmHg 78%
    14:00 -1°C° 0 mm 2 mps 752 mmHg 82%
    15:00 -2°C° 0 mm 2 mps 752 mmHg 85%
    16:00 -2°C° 0 mm 2 mps 752 mmHg 88%
    17:00 -2°C° 0 mm 2 mps 752 mmHg 89%
    18:00 -2°C° 0 mm 2 mps 752 mmHg 89%
    19:00 -2°C° 0 mm 2 mps 752 mmHg 89%
    20:00 -3°C° 0 mm 2 mps 752 mmHg 90%
    21:00 -3°C° 0 mm 2 mps 752 mmHg 91%
    22:00 -3°C° 0 mm 2 mps 752 mmHg 92%
    23:00 -3°C° 0 mm 2 mps 752 mmHg 92%
    Show more